EW5546 Weather Reports


time (UTC)temp
F
wind
direction
speed
knots
gust
knots
rain 1hr
in
rain 24hr
in
rain mn
in
humidity
%
barometer
mb
20260906174524 63 248 0.0 1.7 0.00 0.00 0.00 57 1022.1
20260906173703 63 203 0.0 0.9 0.00 0.00 0.00 57 1022.1
20260906172517 63 203 0.9 1.7 0.00 0.00 0.00 56 1022.1
20260906171523 63 225 0.0 0.9 0.00 0.00 0.00 55 1022.1
20260906170526 63 161 0.9 1.7 0.00 0.00 0.00 55 1022.1
20260906165524 64 206 0.9 2.6 0.00 0.00 0.00 55 1022.1
20260906164523 64 212 0.9 0.9 0.00 0.00 0.00 55 1022.1
20260906163523 64 244 0.9 0.9 0.00 0.00 0.00 55 1022.1
20260906162522 64 220 0.9 2.6 0.00 0.00 0.00 55 1022.1
20260906161523 64 203 0.0 0.9 0.00 0.00 0.00 54 1022.1
20260906160603 0 315 0.0 0.9 0.00 0.00 0.00 1021.7
20260906155523 65 194 0.9 2.6 0.00 0.00 0.00 54 1021.1
20260906154520 65 206 0.9 1.7 0.00 0.00 0.00 53 1021.1
20260906153545 65 183 0.9 3.5 0.00 0.00 0.00 53 1021.1
20260906152524 65 66 2.6 5.2 0.00 0.00 0.00 52 1021.1
20260906151527 66 64 1.7 2.6 0.00 0.00 0.00 52 1021.1
20260906150523 66 203 0.9 1.7 0.00 0.00 0.00 51 1021.1
20260906145625 67 209 2.6 3.5 0.00 0.00 0.00 51 1021.1
20260906144525 67 54 2.6 4.3 0.00 0.00 0.00 49 1021.1
20260906143523 68 233 1.7 1.7 0.00 0.00 0.00 48 1021.1
20260906142518 70 190 1.7 2.6 0.00 0.00 0.00 46 1021.1
20260906141522 71 55 2.6 3.5 0.00 0.00 0.00 46 1020.1
20260906140524 71 233 1.7 4.3 0.00 0.00 0.00 46 1020.1
20260906135543 71 62 1.7 3.5 0.00 0.00 0.00 47 1020.1
20260906134545 69 50 1.7 3.5 0.00 0.00 0.00 48 1020.1
20260906133541 67 215 1.7 2.6 0.00 0.00 0.00 49 1020.1
20260906132524 68 136 2.6 4.3 0.00 0.00 0.00 49 1020.1
20260906131517 68 194 1.7 2.6 0.00 0.00 0.00 49 1020.1
20260906130538 67 123 1.7 2.6 0.00 0.00 0.00 50 1020.1
20260906125543 67 248 1.7 1.7 0.00 0.00 0.00 50 1020.1
20260906124523 66 85 3.5 5.2 0.00 0.00 0.00 51 1020.1
20260906123523 66 258 1.7 3.5 0.00 0.00 0.00 50 1019.9
20260906122523 67 268 1.7 4.3 0.00 0.00 0.00 50 1019.1
20260906121516 0 201 1.7 2.6 0.00 0.00 0.00 1019.1
20260906120518 67 192 0.9 1.7 0.00 0.00 0.00 51 1019.1
20260906115523 66 157 1.7 3.5 0.00 0.00 0.00 51 1019.1
20260906114522 66 59 2.6 4.3 0.00 0.00 0.00 51 1019.1
20260906113524 67 94 2.6 5.2 0.00 0.00 0.00 51 1019.1
20260906112523 66 200 1.7 2.6 0.00 0.00 0.00 51 1019.1
20260906111525 65 185 1.7 4.3 0.00 0.00 0.00 52 1018.1
20260906110534 65 268 1.7 3.5 0.00 0.00 0.00 53 1018.1
20260906105524 64 23 3.5 7.8 0.00 0.00 0.00 53 1018.1
20260906104523 64 81 2.6 5.2 0.00 0.00 0.00 54 1018.1
20260906103517 64 48 2.6 6.1 0.00 0.00 0.00 54 1018.1
20260906102524 65 212 1.7 3.5 0.00 0.00 0.00 54 1018.1
20260906101524 64 35 2.6 3.5 0.00 0.00 0.00 56 1018.1
20260906100543 64 95 2.6 3.5 0.00 0.00 0.00 57 1018.1
20260906095517 63 217 1.7 2.6 0.00 0.00 0.00 57 1018.1
20260906094544 63 162 1.7 2.6 0.00 0.00 0.00 58 1018.1
20260906093522 62 131 1.7 2.6 0.00 0.00 0.00 60 1018.1
20260906092516 62 131 1.7 4.3 0.00 0.00 0.00 61 1018.1
20260906091526 61 109 2.6 5.2 0.00 0.00 0.00 61 1017.1
20260906090524 61 173 1.7 1.7 0.00 0.00 0.00 61 1017.1
20260906085526 61 152 1.7 3.5 0.00 0.00 0.00 61 1017.1
20260906084522 61 142 0.9 1.7 0.00 0.00 0.00 61 1017.1
20260906083524 61 226 1.7 3.5 0.00 0.00 0.00 62 1017.1
20260906082526 60 183 2.6 4.3 0.00 0.00 0.00 62 1017.1
20260906081549 60 234 0.9 1.7 0.00 0.00 0.00 63 1016.1
20260906080523 60 205 1.7 2.6 0.00 0.00 0.00 64 1016.1
20260906075523 60 187 0.9 1.7 0.00 0.00 0.00 64 1016.1
20260906074523 60 232 0.9 1.7 0.00 0.00 0.00 63 1016.1
20260906073522 60 215 0.9 3.5 0.00 0.00 0.00 63 1016.1
20260906072603 59 202 1.7 2.6 0.00 0.00 0.00 64 1016.1
20260906071523 59 188 1.7 1.7 0.00 0.00 0.00 63 1015.0
20260906070543 59 211 0.9 1.7 0.00 0.00 0.00 63 1015.0
20260906065523 59 225 0.9 2.6 0.00 0.00 0.00 63 1015.0
20260906064545 59 239 0.9 1.7 0.00 0.00 0.00 62 1015.0
20260906063523 59 173 1.7 2.6 0.00 0.00 0.00 62 1015.0
20260906062524 59 228 1.7 3.5 0.00 0.00 0.00 61 1015.0
20260906061539 59 193 1.7 2.6 0.00 0.00 0.00 61 1015.0
20260906060523 59 190 0.9 1.7 0.00 0.00 0.00 62 1015.0
20260906055526 59 239 2.6 3.5 0.00 0.00 0.00 62 1015.0
20260906054518 59 224 1.7 2.6 0.00 0.00 0.00 62 1015.0
20260906053523 59 234 1.7 2.6 0.00 0.00 0.00 62 1015.0
20260906052524 59 223 1.7 2.6 0.00 0.00 0.00 62 1015.0
20260906051516 59 178 1.7 2.6 0.00 0.00 0.00 62 1014.0
20260906050517 59 8 1.7 3.5 0.00 0.00 0.00 63 1014.0
20260906045524 59 221 1.7 1.7 0.00 0.00 0.00 63 1014.0
20260906044525 59 220 1.7 2.6 0.00 0.00 0.00 62 1014.0
20260906043603 59 187 1.7 3.5 0.00 0.00 0.00 62 1014.0
20260906042515 59 186 0.9 2.6 0.00 0.00 0.00 62 1014.0
20260906041544 59 224 0.9 1.7 0.00 0.00 0.00 62 1014.0
20260906040523 59 186 0.9 2.6 0.00 0.00 0.00 62 1014.0
20260906035518 59 212 1.7 1.7 0.00 0.00 0.00 62 1014.0
20260906034516 59 222 0.9 1.7 0.00 0.00 0.00 62 1014.0
20260906033523 59 240 0.9 1.7 0.00 0.00 0.00 62 1014.0
20260906032544 59 224 0.9 1.7 0.00 0.00 0.00 62 1014.0
20260906031523 59 300 1.7 1.7 0.00 0.00 0.00 62 1014.0
20260906030542 59 239 1.7 3.5 0.00 0.00 0.00 63 1014.0
20260906025522 59 231 1.7 2.6 0.00 0.00 0.00 63 1014.0
20260906024517 59 203 1.7 3.5 0.00 0.00 0.00 63 1014.0
20260906023522 59 174 0.9 1.7 0.00 0.00 0.00 64 1014.0
20260906022523 59 221 0.9 1.7 0.00 0.00 0.00 64 1014.0
20260906021523 59 248 0.9 2.6 0.00 0.00 0.00 64 1014.0
20260906020523 59 227 0.9 1.7 0.00 0.00 0.00 65 1014.0
20260906015523 59 195 0.9 1.7 0.00 0.00 0.00 65 1014.0
20260906014541 59 225 0.9 1.7 0.00 0.00 0.00 66 1014.0
20260906013526 59 203 0.0 0.9 0.00 0.00 0.00 66 1014.0
20260906012523 59 225 0.9 0.9 0.00 0.00 0.00 65 1014.0
20260906011523 59 160 0.9 0.9 0.00 0.00 0.00 65 1014.0
20260906010552 59 224 0.9 1.7 0.00 0.00 0.00 65 1014.0
20260906005543 59 222 0.9 1.7 0.00 0.00 0.00 65 1014.0
20260906004517 59 208 0.9 0.9 0.00 0.00 0.00 64 1014.0
20260906003522 59 235 0.9 1.7 0.00 0.00 0.00 64 1014.0
20260906002524 59 225 0.0 0.9 0.00 0.00 0.00 64 1014.0
20260906001516 59 238 1.7 3.5 0.00 0.00 0.00 64 1014.0
20260906000557 0 23 0.9 0.9 0.00 0.00 0.00 1014.0
20260906000019 59 207 1.7 1.7 0.00 0.00 0.00 64 1014.0
20260905235023 59 243 0.9 1.7 0.00 0.00 0.00 64 1014.0
20260905234023 59 214 0.9 1.7 0.00 0.00 0.00 64 1013.0
20260905233022 59 209 0.9 1.7 0.00 0.00 0.00 64 1013.0
20260905232024 60 176 0.0 0.9 0.00 0.00 0.00 63 1013.0
20260905231018 60 206 0.9 1.7 0.00 0.00 0.00 63 1013.0
20260905230034 60 231 1.7 2.6 0.00 0.00 0.00 62 1013.0
20260905225020 60 209 0.9 0.9 0.00 0.00 0.00 61 1013.0
20260905224024 60 216 1.7 1.7 0.00 0.00 0.00 61 1013.0
20260905223042 60 216 0.9 1.7 0.00 0.00 0.00 60 1013.0
20260905222143 60 203 0.9 1.7 0.00 0.00 0.00 59 1013.0
20260905221023 60 240 0.9 1.7 0.00 0.00 0.00 59 1013.0
20260905220022 60 128 0.9 2.6 0.00 0.00 0.00 59 1013.0
20260905215023 61 234 0.9 1.7 0.00 0.00 0.00 59 1013.0
20260905214037 61 248 0.9 0.9 0.00 0.00 0.00 58 1013.0
20260905213033 61 239 0.9 1.7 0.00 0.00 0.00 57 1013.0
20260905212024 61 210 0.9 0.9 0.00 0.00 0.00 56 1013.0
20260905211023 61 205 0.9 2.6 0.00 0.00 0.00 55 1013.0
20260905210020 61 211 0.9 3.5 0.00 0.00 0.00 54 1012.7
20260905205027 62 220 0.0 0.9 0.00 0.00 0.00 53 1012.0
20260905204023 62 224 0.0 0.9 0.00 0.00 0.00 53 1012.0
20260905203044 62 225 0.9 1.7 0.00 0.00 0.00 53 1012.0
20260905202024 62 200 1.7 2.6 0.00 0.00 0.00 52 1012.0
20260905201023 62 257 0.9 2.6 0.00 0.00 0.00 52 1012.0
20260905200023 62 204 0.9 0.9 0.00 0.00 0.00 53 1012.0
20260905195022 62 58 2.6 4.3 0.00 0.00 0.00 54 1012.0
20260905194022 63 202 0.9 1.7 0.00 0.00 0.00 53 1012.0
20260905193043 62 241 0.9 1.7 0.00 0.00 0.00 54 1012.0
20260905192024 63 200 0.9 1.7 0.00 0.08 0.00 53 1012.0
20260905191018 63 237 0.9 2.6 0.00 0.08 0.00 53 1012.0
20260905190027 63 229 0.9 1.7 0.00 0.08 0.00 52 1012.0
20260905185017 63 209 0.9 1.7 0.00 0.08 0.00 51 1012.0
20260905184023 63 233 0.9 1.7 0.00 0.08 0.00 50 1012.0
20260905183023 64 196 0.9 0.9 0.00 0.08 0.00 49 1012.3
20260905182023 64 226 0.9 1.7 0.00 0.08 0.00 48 1013.0
20260905181123 64 0.0 0.0 0.00 0.08 0.00 48 1012.0
20260905180018 64 206 0.9 1.7 0.00 0.08 0.00 48 1012.0
20260905175023 64 213 0.9 0.9 0.00 0.08 0.00 48 1012.0